FLOCK 2E-11

Last updated on Sun Mar 04 2018 00:15:06 GMT+0000 (Coordinated Universal Time)

1 41574U 98067JY 18062.82927663 .08399169 12325-4 83007-3 0 9994 2 41574 51.5802 108.9826 0002045 91.6097 269.0366 16.37402810100624

Satellite not in orbit